SB KEPS @ AMSAT $ORB13129.N 2Line Orbital Elements 13129.AMSAT
HR AMSAT ORBITAL ELEMENTS FOR AMATEUR SATELLITES IN NASA FORMAT FROM WA5QGD FORT WORTH,TX May 9, 2013 BID: ORB13129.N
DECODE 2-LINE ELSETS WITH THE FOLLOWING KEY: 1 AAAAAU 00 0 0 BBBBB.BBBBBBBB .CCCCCCCC 00000-0 00000-0 0 DDDZ 2 AAAAA EEE.EEEE FFF.FFFF GGGGGGG HHH.HHHH III.IIII JJ.JJJJJJJJKKKKKZ KEY: A-CATALOGNUM B-EPOCHTIME C-DECAY D-ELSETNUM E-INCLINATION F-RAAN G-ECCENTRICITY H-ARGPERIGEE I-MNANOM J-MNMOTION K-ORBITNUM Z-CHECKSUM
TO ALL RADIO AMATEURS BT
AO-07 1 07530U 74089B 13129.87667196 -.00000040 00000-0 19978-4 0 6764 2 07530 101.4287 120.7767 0011911 005.7738 032.1452 12.53596083760982 FO-29 1 24278U 96046B 13129.77797314 -.00000020 00000-0 18554-4 0 1126 2 24278 098.5582 193.4747 0349497 263.6192 249.3764 13.52999863826110 SO-33 1 25509U 98061B 13129.84876833 .00000830 00000-0 15087-3 0 4921 2 25509 031.4341 284.6880 0351548 182.3423 329.7348 14.29046538759407 RS-22 1 27939U 03042A 13129.64625881 .00000910 00000-0 18034-3 0 3943 2 27939 097.7974 319.5089 0012517 313.6879 046.3286 14.64423836513653 VO-52 1 28650U 05017B 13129.49972056 .00000964 00000-0 12169-3 0 4178 2 28650 097.5691 150.0865 0027011 051.0859 098.1118 14.83794570433347 HO-68 1 36122U 09072B 13129.74241122 -.00000044 00000-0 00000 0 0 5322 2 36122 100.3093 187.7614 0007855 082.3763 277.8243 13.16303812163359 UO-11 1 14781U 84021B 13129.32354513 .00000545 00000-0 77289-4 0 1744 2 14781 097.9059 191.1856 0009868 062.1850 298.0361 14.80857566568183 AO-16 1 20439U 90005D 13129.39519851 .00000136 00000-0 66287-4 0 7417 2 20439 098.4691 070.3272 0009687 272.8974 233.9056 14.32166887216684 LO-19 1 20442U 90005G 13129.00382602 .00000116 00000-0 58793-4 0 6758 2 20442 098.4381 071.8562 0010693 263.5961 159.0046 14.32378472216822 AO-27 1 22825U 93061C 13129.84436413 .00000114 00000-0 61634-4 0 3799 2 22825 098.6158 074.2795 0009077 047.8533 346.0987 14.29557181 23156 IO-26 1 22826U 93061D 13128.87970163 .00000123 00000-0 65043-4 0 1355 2 22826 098.6099 073.6201 0009543 043.9047 029.7457 14.29840373 23145 GO-32 1 25397U 98043D 13128.82883075 .00000074 00000-0 50761-4 0 654 2 25397 098.4112 098.3066 0002252 077.1768 010.8055 14.23337089770342 NO-44 1 26931U 01043C 13129.70439610 .00000049 00000-0 51269-4 0 3236 2 26931 067.0529 358.7126 0007075 285.0645 111.5730 14.29918112605921 SO-50 1 27607U 02058C 13129.22784704 .00000506 00000-0 98640-4 0 608 2 27607 064.5583 022.7388 0049982 176.0821 328.8498 14.72891920557970 CO-55 1 27844U 03031E 13128.98284046 .00000215 00000-0 11875-3 0 6437 2 27844 098.7009 138.6260 0009496 010.2287 022.3157 14.21204648511160 CO-57 1 27848U 03031J 13129.56123581 .00000171 00000-0 98965-4 0 5898 2 27848 098.7095 138.6879 0009576 014.3944 131.6317 14.20932251511179 AO-51 1 28375U 04025K 13129.45477196 .00000182 00000-0 66845-4 0 5524 2 28375 098.1981 086.4763 0084664 132.8532 014.3581 14.41105150465750 CP3 1 31129U 07012N 13129.45325872 .00000541 00000-0 13142-3 0 4560 2 31129 097.8961 124.2851 0100446 187.1150 333.2727 14.53603980321360 CO-65 1 32785U 08021C 13129.33201383 .00001233 00000-0 15484-3 0 6266 2 32785 097.7547 187.9700 0015613 078.3179 344.2188 14.83795735272114 PRISM 1 33493U 09002B 13129.83148276 .00004259 00000-0 49528-3 0 7885 2 33493 098.2126 285.5127 0017180 320.2008 039.7922 14.85790645232226 SOHLA-1 1 33496U 09002E 13129.83308454 .00000400 00000-0 74531-4 0 413 2 33496 098.1309 245.9620 0007857 088.3623 057.7743 14.70265218230231 SO-67 1 35870U 09049F 13129.77379378 .00006986 00000-0 26822-3 0 423 2 35870 097.1948 159.8972 0003833 090.9659 023.9146 15.26747869202395 TISAT-1 1 36799U 10035E 13129.80115334 .00002981 00000-0 37134-3 0 581 2 36799 098.0347 214.2655 0014315 187.6575 172.4410 14.83175985152889 STUDSAT 1 36801U 10035G 13127.85546332 .00007538 00000-0 82849-3 0 6250 2 36801 098.0456 215.0874 0012644 175.2412 323.3947 14.87867699152732 ALMASAT-1 1 38078U 12006B 13129.77180023 .00037621 00000-0 93453-3 0 2493 2 38078 069.4783 290.0606 0707255 196.2798 161.4494 14.22392723 63773 XATCOBEO 1 38082U 12006F 13129.57776461 .00105051 46266-5 20790-2 0 1385 2 38082 069.4761 269.8720 0601777 185.3087 174.1254 14.49539276 64318 SOMP 1 39135U 13015F 13130.01391652 .00004731 00000-0 39119-3 0 303 2 39135 064.8776 328.4319 0017426 209.3607 150.9450 14.99963388 3106 CUBEBUG? 1 39151U 13018B 13129.77609068 .00001476 00000-0 21976-3 0 471 2 39151 098.0759 205.5235 0017372 203.0517 156.9899 14.76333159 2000 CUBEBUG?? 1 39153U 13018D 13129.77602920 .00001668 00000-0 24738-3 0 408 2 39153 098.0754 205.5230 0017844 202.7675 157.2736 14.76342327 2019 ESTCUBE-1 1 39161U 13021C 13129.81405116 -.00000205 00000-0 -26605-4 0 82 2 39161 098.1286 208.2723 0009119 227.2880 132.7448 14.68888227 361 NOAA-10 1 16969U 86073A 13129.14751718 .00000067 00000-0 44482-4 0 3471 2 16969 098.5477 157.8313 0011952 006.1318 039.7776 14.27634362386372 NOAA-11 1 19531U 88089A 13129.13591676 .00000059 00000-0 52770-4 0 3506 2 19531 098.7109 213.0879 0011191 019.2432 038.8583 14.15012840270605 NOAA-12 1 21263U 91032A 13129.08911132 .00000037 00000-0 34257-4 0 8196 2 21263 098.6991 154.7806 0013039 337.5989 093.1532 14.25561551142981 MET-3/5 1 21655U 91056A 13129.50647995 .00000004 00000-0 -20936-4 0 6852 2 21655 082.5554 281.6206 0012852 222.0205 137.9932 13.17046947 44842 MET-2/21 1 22782U 93055A 13129.14821271 .00000021 00000-0 54091-5 0 7349 2 22782 082.5472 133.8975 0021280 321.1171 107.5416 13.83703691994249 OKEAN-4 1 23317U 94066A 13129.45295282 .00001082 00000-0 12546-3 0 2135 2 23317 082.5393 086.0445 0020733 358.9386 152.9168 14.84407766 3194 NOAA-14 1 23455U 94089A 13129.15681010 .00000108 00000-0 80113-4 0 3043 2 23455 098.8029 214.1855 0010609 109.1071 340.7676 14.13903895946856 NOAA-15 1 25338U 98030A 13129.12827080 .00000158 00000-0 85899-4 0 7237 2 25338 098.7226 119.5505 0009768 236.9612 255.8338 14.25211103779278 RESURS 1 25394U 98043A 13129.10478095 -.00000000 00000-0 17618-4 0 3708 2 25394 098.3585 106.8241 0001774 051.3656 080.0739 14.24329173770793 FENGYUN1 1 25730U 99025A 13129.10597081 .00001101 00000-0 64176-3 0 8684 2 25730 098.8764 089.1032 0024532 152.2850 336.6468 14.10450212720536 OKEAN-0 1 25860U 99039A 13129.02347060 .00000455 00000-0 75844-4 0 9401 2 25860 097.9871 092.0068 0000798 110.2468 289.0291 14.74570663742585 NOAA-16 1 26536U 00055A 13129.10366299 .00000097 00000-0 76898-4 0 2007 2 26536 099.0455 181.4758 0009865 241.5256 170.7475 14.12870063651053 NOAA-17 1 27453U 02032A 13129.15828630 .00000043 00000-0 36218-4 0 1237 2 27453 098.3133 145.3074 0010413 280.2266 144.4732 14.24586134565165 NOAA-18 1 28654U 05018A 13129.11198750 .00000267 00000-0 17147-3 0 6082 2 28654 099.0967 096.7741 0013487 321.9699 168.7051 14.11808362410549 NOAA-19 1 33591U 09005A 13129.12137764 .00000276 00000-0 17669-3 0 7920 2 33591 098.9016 071.4987 0014264 175.7967 310.3200 14.11494682218988 HUBBLE 1 20580U 90037B 13129.16350664 .00001495 00000-0 94640-4 0 2350 2 20580 028.4687 168.6386 0003034 297.6803 119.1228 15.03561569 63818 ISS 1 25544U 98067A 13129.91061132 .00024878 00000-0 42703-3 0 7793 2 25544 051.6488 298.1377 0004512 277.5422 179.8735 15.51002943828763 CO-58 1 28895U 05043F 13129.59454290 .00000551 00000-0 12093-3 0 4712 2 28895 097.8745 346.7958 0017430 198.8926 161.1631 14.61072317401303 FALCON 1 30776U 07006E 13129.28822444 .00004191 00000-0 25283-3 0 6092 2 30776 035.4310 080.9098 0002236 295.9587 189.8649 15.10319748339530 MAST 1 31126U 07012K 13129.07532506 .00000419 00000-0 10274-3 0 7491 2 31126 097.8800 127.2339 0093861 173.8437 259.0290 14.54531252321638 CAPE1 1 31130U 07012P 13128.94401703 .00000554 00000-0 13471-3 0 7576 2 31130 097.8967 123.4481 0100836 189.6261 170.3006 14.53434262321074 COMPASS 1 32787U 08021E 13129.13514308 .00002097 00000-0 24952-3 0 6179 2 32787 097.7553 188.7072 0016047 075.5961 284.7034 14.85337790272162 AAUSAT2 1 32788U 08021F 13129.77959876 .00002750 00000-0 32175-3 0 6041 2 32788 097.7563 189.9328 0015682 073.3617 021.6177 14.85787584272301 DO-64 1 32789U 08021G 13129.18897895 .00004815 00000-0 52596-3 0 6323 2 32789 097.7714 192.9039 0015055 070.1181 355.0884 14.88260219272323 CO-66 1 32791U 08021J 13129.15470086 .00002028 00000-0 24635-3 0 6015 2 32791 097.7557 188.1393 0016574 076.3183 339.7388 14.84506470272087 RS-30 1 32953U 08025A 13129.90951345 .00000010 00000-0 00000 0 0 8370 2 32953 082.4996 091.9923 0018010 320.8309 039.1469 12.43033630225152 METEOR-M 1 35865U 09049A 13129.66370411 .00000003 00000-0 20841-4 0 4327 2 35865 098.6056 183.0267 0002205 165.9263 194.1974 14.21884979188994 RS-38 1 35869U 09049E 13129.70357077 .00000061 00000-0 46780-4 0 4020 2 35869 098.6000 182.9912 0004257 175.9578 184.1632 14.22125400189024 JUGNU 1 37839U 11058B 13129.52270554 .00000398 00000-0 70818-4 0 3836 2 37839 019.9600 181.0571 0018863 217.3808 288.1521 14.12149697 81421 SRMSAT 1 37841U 11058D 13128.53477141 .00000388 00000-0 68734-4 0 3844 2 37841 019.9706 198.3148 0011744 160.8667 333.1652 14.10220472 81164 RAX-2 1 37853U 11061D 13129.51993767 .00005579 00000-0 42503-3 0 4974 2 37853 101.7162 325.2440 0236575 138.3476 258.5380 14.83222997 82712 AUBIESAT 1 37854U 11061E 13129.49506095 .00007072 00000-0 52499-3 0 4915 2 37854 101.7199 325.9950 0236626 137.1274 258.2302 14.83915553 82725 HRBE 1 37855U 11061F 13129.10113554 .00006882 00000-0 51379-3 0 4899 2 37855 101.7205 325.2078 0237680 138.6784 337.7028 14.83586005 82657 RS-39 1 38051U 11062C 13129.77249002 .00020109 00000-0 65933-3 0 4259 2 38051 051.6361 035.8553 0013429 123.1265 292.9787 15.31527112 71896 E-STAR 1 38079U 12006C 13129.86304262 .00079579 38759-5 16622-2 0 1101 2 38079 069.4775 274.4028 0634346 187.8671 332.4266 14.41594979 64209 GOLIAT 1 38085U 12006J 13129.50516042 .00081924 39137-5 16869-2 0 234 2 38085 069.4758 277.1305 0644832 189.2407 169.6364 14.39649985 64102 HORYU-2 1 38340U 12025D 13129.39691929 .00001566 00000-0 26423-3 0 4872 2 38340 098.2121 076.7215 0013062 021.4575 338.7063 14.70843344 52417 RS-40 1 38736U 12041D 13129.11160523 .00000010 00000-0 00000 0 0 2656 2 38736 082.4807 179.4852 0022700 054.3013 306.0174 12.42867664 35398 PROITERES 1 38756U 12047B 13129.69844749 .00000883 00000-0 14180-3 0 7624 2 38756 098.2537 206.0319 0011560 225.9264 134.0988 14.74178442 35721 RAIKO 1 38852U 98067CN 13129.13888732 .00091532 00000-0 69442-3 0 2195 2 38852 051.6389 289.3851 0013584 233.6243 126.3503 15.71464238 33715 FITSAT 1 1 38853U 98067CP 13123.60091694 .00180227 00000-0 10890-2 0 2186 2 38853 051.6421 314.6695 0012380 226.6699 133.3270 15.76445853 32930 TechEdSat 1 38854U 98067CQ 13124.93253577 .11592855 12481-4 94246-3 0 2908 2 38854 051.6449 297.0261 0010505 310.8629 049.0629 16.38844728 33294 F 1 1 38855U 98067CR 13129.77714356 .27424026 12535-4 30797-3 0 2871 2 38855 051.5085 272.4145 0008326 194.2908 166.5495 16.49710473 33949 WeWish 1 38856U 98067CS 13069.98095549 .16701328 12537-4 10063-2 0 2487 2 38856 051.6166 215.0521 0008325 316.0438 044.8765 16.41348316 24586 OSSI-1 1 39131U 13015B 13113.49391669 .00171511 13909-4 85875-3 0 37 2 39131 064.8913 019.7169 0213781 058.2074 115.1737 15.55484603 636 BEESAT-3 1 39134U 13015E 13130.01385400 .00004649 00000-0 38458-3 0 400 2 39134 064.8784 328.4297 0016952 210.1444 149.9169 14.99973606 3100 BEESAT-2 1 39136U 13015G 13129.68019987 .00004700 00000-0 38852-3 0 414 2 39136 064.8790 329.4785 0017390 209.3406 150.6674 14.99983951 3055 /EX
participants (1)
-
Ray Hoad